| time (UTC) | temp C | wind direction | speed KPH | gust KPH | rain 1hr cm | rain 24hr cm | rain mn cm | humidity % | barometer mb |
| 20260502151601 | 14 | 298 | 24.1 | 38.6 | 0.00 | 0.00 | 0.00 | 42 | 1009.9 |
| 20260502123021 | 8 | 216 | 9.7 | 16.1 | 0.00 | 0.00 | 0.00 | 52 | 1010.5 |
| 20260502121520 | 7 | 177 | 11.3 | 17.7 | 0.00 | 0.00 | 0.00 | 53 | 1010.6 |
| 20260502114518 | 8 | 165 | 4.8 | 14.5 | 0.00 | 0.00 | 0.00 | 50 | 1011.0 |
| 20260502113016 | 8 | 198 | 16.1 | 22.5 | 0.00 | 0.00 | 0.00 | 50 | 1011.0 |
| 20260502111514 | 9 | 184 | 14.5 | 22.5 | 0.00 | 0.00 | 0.00 | 46 | 1011.3 |
| 20260502110012 | 10 | 205 | 27.4 | 38.6 | 0.00 | 0.00 | 0.00 | 44 | 1011.2 |
| 20260502104510 | 10 | 203 | 20.9 | 33.8 | 0.00 | 0.00 | 0.00 | 45 | 1011.5 |
| 20260502103016 | 9 | 213 | 22.5 | 30.6 | 0.00 | 0.00 | 0.00 | 46 | 1011.8 |
| 20260502101504 | 8 | 219 | 14.5 | 19.3 | 0.00 | 0.00 | 0.00 | 49 | 1012.2 |
| 20260502080103 | 7 | 200 | 17.7 | 27.4 | 0.00 | 0.00 | 0.00 | 50 | 1013.0 |
| 20260502070039 | 7 | 190 | 16.1 | 24.1 | 0.00 | 0.00 | 0.00 | 53 | 1014.0 |
| 20260502064550 | 6 | 194 | 16.1 | 20.9 | 0.00 | 0.00 | 0.00 | 54 | 1014.1 |
| 20260502063035 | 6 | 197 | 17.7 | 22.5 | 0.00 | 0.00 | 0.00 | 56 | 1014.2 |
| 20260502061528 | 6 | 200 | 14.5 | 25.7 | 0.00 | 0.00 | 0.00 | 55 | 1014.5 |
| 20260502060027 | 5 | 187 | 12.9 | 17.7 | 0.00 | 0.00 | 0.00 | 56 | 1014.7 |
| 20260502054529 | 6 | 190 | 11.3 | 16.1 | 0.00 | 0.00 | 0.00 | 55 | 1014.8 |
| 20260502053021 | 5 | 178 | 11.3 | 14.5 | 0.00 | 0.00 | 0.00 | 56 | 1014.9 |
| 20260502051521 | 5 | 173 | 11.3 | 14.5 | 0.00 | 0.00 | 0.00 | 56 | 1014.9 |
| 20260502050022 | 5 | 171 | 11.3 | 11.3 | 0.00 | 0.00 | 0.00 | 55 | 1015.0 |
| 20260502044515 | 5 | 171 | 9.7 | 12.9 | 0.00 | 0.00 | 0.00 | 56 | 1015.2 |
| 20260502043113 | 5 | 171 | 8.0 | 11.3 | 0.00 | 0.00 | 0.00 | 56 | 1015.3 |
| 20260502041511 | 5 | 167 | 12.9 | 14.5 | 0.00 | 0.00 | 0.00 | 54 | 1015.5 |
| 20260502040012 | 5 | 163 | 9.7 | 12.9 | 0.00 | 0.00 | 0.00 | 53 | 1015.6 |
| 20260502034509 | 5 | 161 | 8.0 | 11.3 | 0.00 | 0.00 | 0.00 | 53 | 1015.7 |
| 20260502033009 | 5 | 162 | 8.0 | 11.3 | 0.00 | 0.00 | 0.00 | 50 | 1015.7 |
| 20260502031507 | 5 | 173 | 3.2 | 4.8 | 0.00 | 0.00 | 0.00 | 47 | 1015.7 |
| 20260502030007 | 6 | 174 | 4.8 | 8.0 | 0.00 | 0.00 | 0.00 | 44 | 1015.7 |
| 20260502024507 | 7 | 174 | 3.2 | 6.4 | 0.00 | 0.00 | 0.00 | 40 | 1015.6 |
| 20260502023006 | 8 | 174 | 3.2 | 4.8 | 0.00 | 0.00 | 0.00 | 39 | 1015.7 |
| 20260502021505 | 10 | 174 | 3.2 | 8.0 | 0.00 | 0.00 | 0.00 | 37 | 1015.6 |
| 20260502020005 | 12 | 250 | 3.2 | 4.8 | 0.00 | 0.00 | 0.00 | 30 | 1015.7 |
| 20260502014514 | 15 | 252 | 4.8 | 6.4 | 0.00 | 0.00 | 0.00 | 26 | 1015.7 |
| 20260502013003 | 16 | 302 | 0.0 | 3.2 | 0.00 | 0.00 | 0.00 | 25 | 1015.6 |
| 20260502011502 | 17 | 302 | 0.0 | 4.8 | 0.00 | 0.00 | 0.00 | 24 | 1015.8 |
| 20260502010001 | 17 | 302 | 3.2 | 4.8 | 0.00 | 0.00 | 0.00 | 24 | 1015.9 |
| 20260502004607 | 17 | 302 | 1.6 | 6.4 | 0.00 | 0.00 | 0.00 | 23 | 1016.0 |
| 20260502003138 | 17 | 302 | 6.4 | 16.1 | 0.00 | 0.00 | 0.00 | 24 | 1016.1 |
| 20260502001633 | 17 | 298 | 6.4 | 19.3 | 0.00 | 0.00 | 0.00 | 23 | 1016.2 |
| 20260502000059 | 17 | 286 | 4.8 | 16.1 | 0.00 | 0.00 | 0.00 | 23 | 1016.3 |
| 20260501234555 | 17 | 271 | 4.8 | 17.7 | 0.00 | 0.00 | 0.00 | 23 | 1016.3 |
| 20260501233054 | 18 | 310 | 11.3 | 20.9 | 0.00 | 0.00 | 0.00 | 23 | 1016.5 |
| 20260501231551 | 18 | 313 | 12.9 | 22.5 | 0.00 | 0.00 | 0.00 | 23 | 1016.7 |
| 20260501230050 | 17 | 290 | 9.7 | 25.7 | 0.00 | 0.00 | 0.00 | 23 | 1016.7 |
| 20260501224557 | 17 | 282 | 14.5 | 22.5 | 0.00 | 0.00 | 0.00 | 24 | 1016.7 |
| 20260501223048 | 17 | 301 | 19.3 | 32.2 | 0.00 | 0.00 | 0.00 | 23 | 1016.9 |
| 20260501221546 | 18 | 312 | 16.1 | 29.0 | 0.00 | 0.00 | 0.00 | 23 | 1016.9 |
| 20260501220048 | 17 | 322 | 20.9 | 30.6 | 0.00 | 0.00 | 0.00 | 24 | 1017.0 |
| 20260501214542 | 17 | 290 | 14.5 | 29.0 | 0.00 | 0.00 | 0.00 | 24 | 1017.2 |
| 20260501213044 | 17 | 260 | 14.5 | 27.4 | 0.00 | 0.00 | 0.00 | 25 | 1017.2 |
| 20260501211537 | 17 | 269 | 16.1 | 30.6 | 0.00 | 0.00 | 0.00 | 24 | 1017.4 |
| 20260501210037 | 17 | 309 | 14.5 | 30.6 | 0.00 | 0.00 | 0.00 | 25 | 1017.6 |
| 20260501204533 | 17 | 271 | 8.0 | 27.4 | 0.00 | 0.00 | 0.00 | 27 | 1017.8 |
| 20260501203034 | 17 | 290 | 14.5 | 27.4 | 0.00 | 0.00 | 0.00 | 27 | 1018.0 |
| 20260501201531 | 16 | 292 | 12.9 | 27.4 | 0.00 | 0.00 | 0.00 | 27 | 1018.0 |
| 20260501200028 | 16 | 304 | 16.1 | 27.4 | 0.00 | 0.00 | 0.00 | 28 | 1018.3 |
| 20260501194529 | 16 | 282 | 9.7 | 24.1 | 0.00 | 0.00 | 0.00 | 27 | 1018.2 |
| 20260501193024 | 16 | 308 | 11.3 | 27.4 | 0.00 | 0.00 | 0.00 | 28 | 1018.3 |
| 20260501191520 | 16 | 262 | 12.9 | 19.3 | 0.00 | 0.00 | 0.00 | 28 | 1018.3 |
| 20260501190019 | 15 | 243 | 6.4 | 16.1 | 0.00 | 0.00 | 0.00 | 29 | 1018.4 |
| 20260501184516 | 15 | 355 | 14.5 | 27.4 | 0.00 | 0.00 | 0.00 | 29 | 1018.5 |
| 20260501183013 | 15 | 263 | 8.0 | 20.9 | 0.00 | 0.00 | 0.00 | 30 | 1018.6 |
| 20260501181520 | 15 | 318 | 11.3 | 19.3 | 0.00 | 0.00 | 0.00 | 31 | 1018.8 |
| 20260501180011 | 14 | 304 | 12.9 | 19.3 | 0.00 | 0.00 | 0.00 | 31 | 1019.0 |
| 20260501174511 | 14 | 297 | 12.9 | 22.5 | 0.00 | 0.00 | 0.00 | 31 | 1019.2 |
| 20260501173007 | 13 | 309 | 17.7 | 24.1 | 0.00 | 0.00 | 0.00 | 32 | 1019.4 |
| 20260501171512 | 13 | 315 | 11.3 | 19.3 | 0.00 | 0.00 | 0.00 | 33 | 1019.5 |
| 20260501170005 | 13 | 305 | 9.7 | 17.7 | 0.00 | 0.00 | 0.00 | 34 | 1019.5 |
| 20260501164606 | 12 | 250 | 8.0 | 14.5 | 0.00 | 0.00 | 0.00 | 34 | 1019.4 |
| 20260501163057 | 12 | 257 | 3.2 | 17.7 | 0.00 | 0.00 | 0.00 | 36 | 1019.4 |
| 20260501161608 | 12 | 272 | 4.8 | 12.9 | 0.00 | 0.00 | 0.00 | 34 | 1019.3 |
| 20260501160100 | 12 | 306 | 6.4 | 16.1 | 0.00 | 0.00 | 0.00 | 36 | 1019.5 |
| 20260501154601 | 11 | 303 | 4.8 | 14.5 | 0.00 | 0.00 | 0.00 | 39 | 1019.6 |
| 20260501153057 | 10 | 288 | 14.5 | 19.3 | 0.00 | 0.00 | 0.00 | 41 | 1019.7 |